Погода в Никеле

Россия / Мурманская область     69°24′36″N   30°12′36″E
темп.,
°C
ветер,
м/с
пор.,
м/с
влажн.,
%
обл.,
%
осадки,
мм/ч
давл.,
гПа
погр.,
м
11 апреля, вс
вс1100:00−7юз338313 0.0 99430
03:00−8ююз59827 0.0 994105
06:00−6ююз714802 0.0 993278
09:00−3юз91479100 0.0 994568
12:00−1зюз9138398 0.0 995669
15:00+1з91486100 0.4 998833
18:00+1зсз11167785 0.1 1003972
21:00−1з9168063 0.1 1008400
12 апреля, пн
пн1200:00−3зюз915825 0.0 1012341
03:00−3зюз8158412 0.0 1015298
06:00−4зюз8148065 0.0 1017290
09:00−3зюз7157797 0.0 1018519
12:000з711751 0.0 1020893
15:000з69741 0.0 1021934
18:00−1з587160 0.0 1022354
21:00−4юз3386100 0.0 102331
13 апреля, вт
вт1300:00−5зюз2289100 0.0 102310
03:00−5ююз1190100 0.0 102210
06:00−5ю0089100 0.0 102110
09:00−3ссв1277100 0.0 102089
12:00−1св2272100 0.0 1019280
15:00−1всв3472100 0.0 1018491
18:00−1в4682100 0.0 1016437
21:00−3в4896100 0.6 1014438
14 апреля, ср
ср1400:00−3всв5996100 1.1 1012487
03:00−3св4897100 2.9 1008398
06:00−2с4698100 1.4 1007269
09:00−2ссз779371 1.9 1007479
12:00−1з568325 0.0 1009573
15:00−1з7107298 0.0 1010774
18:000з8137699 0.0 1011754
21:00−2з11177691 0.1 1011570
15 апреля, чт
чт1500:00−4зсз10168035 0.0 1015571
03:00−6з915857 0.0 1018351
06:00−6з8148462 0.0 1019310
09:00−3з9127898 0.1 1021842
12:00−2зсз9117367 0.1 10231192
15:00−1сз8116790 0.3 10261441
18:00−2сз697093 0.1 1029778
21:00−5з368333 0.1 103168